Location: Slave Lake
(55.2830°N, 114.7830°W)
Time: 11:17:34
(UTC-07:00)

Amateur Radio Satellites - All Passes

Search period start: 19 December 2014 10:47
Search period end: 20 December 2014 10:47
Location: Slave Lake, 55.2830°N, 114.7830°W

Satellite Date Start Highest point End Downlink Frequencies (MHz)
Time Altitude Azimuth
DOVE 4 19 Dec 10:47:41 10:52:13 61° 290° (WNW) 10:57:01 437.250
CUBEBUG 1 19 Dec 10:48:40 10:51:07 15° 87° (E) 10:53:34 437.445
MaSat-1 19 Dec 10:48:42 10:50:55 54° 309° (NW) 10:53:06 437.345
POPSAT HIP 1 19 Dec 10:52:51 10:57:00 58° 258° (WSW) 11:01:12 437.405
DELFI C3 19 Dec 10:55:58 11:00:09 85° 286° (WNW) 11:04:16 145.870
50 SAT 19 Dec 10:58:18 11:02:05 33° 96° (E) 11:05:52 437.505
UNISAT 6 19 Dec 11:04:13 11:08:15 35° 264° (W) 11:12:25 437.425
Oscar 11 19 Dec 11:06:55 11:11:16 63° 290° (WNW) 11:15:35 145.826/435.025
HUMSAT D 19 Dec 11:09:02 11:13:15 50° 100° (E) 11:17:28 437.325/437.525
UKube-1 19 Dec 11:14:28 11:18:49 72° 290° (WNW) 11:23:08 .
CUBEBUG 2 19 Dec 11:16:29 11:21:03 75° 288° (WNW) 11:25:43 437.445
AO-7 19 Dec 11:17:40 11:22:03 16° 9° (N) 11:26:28 29.400- 29.500
BRITE-PL 19 Dec 11:20:23 11:23:55 23° 301° (WNW) 11:27:38 437.365/2234.400
CUSAT 1 19 Dec 11:21:56 11:25:53 48° 295° (WNW) 11:31:14 437.405
DUCHIFAT 1 19 Dec 11:22:11 11:25:58 32° 264° (W) 11:29:47 145.980
CINEMA 3 19 Dec 11:23:50 11:28:15 47° 293° (WNW) 11:32:50 145.822/145.860
ESTCUBE 1 19 Dec 11:27:43 11:31:49 33° 95° (E) 11:35:52 437.505/2401.250
BUGSAT 1 19 Dec 11:28:11 11:31:53 32° 264° (W) 11:35:35 437.445
VELOX 1 19 Dec 11:30:18 11:34:44 68° 104° (ESE) 11:39:09 145.980
RS-15 19 Dec 11:30:24 11:38:50 27° 103° (ESE) 11:47:19 29.354- 29.394
AAUSAT CUBESAT 2 19 Dec 11:32:33 11:35:57 24° 301° (WNW) 11:39:20 437.432
ZACube-1 19 Dec 11:33:24 11:37:52 69° 289° (WNW) 11:42:23 437.345
YUBILEINY 19 Dec 11:33:55 11:42:41 88° 79° (E) 11:51:24 435.215
GONETS M04 19 Dec 11:35:01 11:36:45 11° 349° (N) 11:38:29
QB50P2 19 Dec 11:35:05 11:38:36 25° 267° (W) 11:42:09 145.880/145.840
ANTELSAT 19 Dec 11:37:10 11:40:24 20° 271° (W) 11:43:44 437.575/2403.000
CANX-2 19 Dec 11:41:40 11:44:13 16° 307° (NW) 11:46:46 2200.000
POLYITAN 1 19 Dec 11:43:44 11:47:00 22° 269° (W) 11:50:19 437.675
NANOSAT C BR1 19 Dec 11:47:23 11:50:33 20° 269° (W) 11:53:44 145.865
GOMX 1 19 Dec 11:54:35 11:57:36 18° 305° (NW) 12:00:45 467.674
UWE-3 19 Dec 11:57:57 12:02:09 40° 295° (WNW) 12:06:27 435.000/436.395/437.385
FUNcube-1 19 Dec 12:00:47 12:05:00 42° 294° (WNW) 12:09:17 145.935
SPROUT 19 Dec 12:01:50 12:05:00 20° 90° (E) 12:08:10 437.525
QB50P1 19 Dec 12:02:19 12:04:54 16° 272° (W) 12:07:29 145.935-145.965
TISAT 1 19 Dec 12:03:06 12:06:19 21° 91° (E) 12:09:31 437.305
O/OREOS (USA 219) 19 Dec 12:05:33 12:08:51 20° 257° (WSW) 12:12:09 437.305
Oscar 19 19 Dec 12:07:54 12:12:39 39° 61° (ENE) 12:17:26 437.125/150
COMPASS 1 19 Dec 12:07:54 12:09:53 13° 309° (NW) 12:11:51 437.405
DANDE 19 Dec 12:07:56 12:11:27 26° 305° (NW) 12:15:55 436.750
Gurwin Techsat 1B 19 Dec 12:09:47 12:12:57 16° 46° (NE) 12:16:08 435.225
SEEDS 19 Dec 12:12:05 12:13:24 11° 312° (NW) 12:14:43 437.485
AISAT 19 Dec 12:12:50 12:17:10 53° 292° (WNW) 12:21:29 437.250
CUTE 1.7 + AOD 2 19 Dec 12:14:30 12:14:53 10° 313° (NW) 12:15:17 437.475
DX 1 19 Dec 12:18:34 12:22:00 23° 303° (WNW) 12:25:26 434.975-435.025
ITAMSAT 1 19 Dec 12:21:23 12:25:32 25° 54° (NE) 12:29:43 435.822/435.867
CUBEBUG 1 19 Dec 12:23:47 12:28:10 89° 286° (WNW) 12:32:30 437.445
DOVE 4 19 Dec 12:27:01 12:29:15 14° 310° (NW) 12:31:32 437.250
HO-68 19 Dec 12:31:22 12:36:47 24° 319° (NW) 12:42:12 435.675
DELFI C3 19 Dec 12:32:23 12:34:50 15° 306° (NW) 12:37:15 145.870
50 SAT 19 Dec 12:33:33 12:37:22 36° 295° (WNW) 12:41:11 437.505
Oscar 11 19 Dec 12:44:38 12:46:39 13° 310° (NW) 12:48:39 145.826/435.025
HUMSAT D 19 Dec 12:45:14 12:48:52 27° 299° (WNW) 12:52:31 437.325/437.525
UKube-1 19 Dec 12:51:55 12:54:17 15° 310° (NW) 12:56:39 .
CUBEBUG 2 19 Dec 12:54:24 12:57:06 16° 308° (NW) 12:59:50 437.445
HORYU 2 19 Dec 13:02:31 13:05:00 15° 50° (NE) 13:07:30 437.375
CINEMA 3 19 Dec 13:03:20 13:04:31 11° 313° (NW) 13:05:42 145.822/145.860
ESTCUBE 1 19 Dec 13:04:33 13:08:49 42° 295° (WNW) 13:13:02 437.505/2401.250
AO-7 19 Dec 13:05:38 13:12:13 27° 36° (NE) 13:18:49 29.400- 29.500
VELOX 1 19 Dec 13:07:33 13:10:57 22° 304° (WNW) 13:14:21 145.980
CUSAT 1 19 Dec 13:08:53 13:10:55 12° 323° (NW) 13:13:08 437.405
ZACube-1 19 Dec 13:11:07 13:13:31 15° 309° (NW) 13:15:57 437.345
YUBILEINY 19 Dec 13:31:31 13:38:30 28° 283° (WNW) 13:45:29 435.215
GONETS M04 19 Dec 13:35:09 13:39:06 13° 25° (NNE) 13:43:01
SPROUT 19 Dec 13:37:15 13:41:32 65° 289° (WNW) 13:45:48 437.525
TISAT 1 19 Dec 13:38:21 13:42:32 60° 290° (WNW) 13:46:41 437.305
RS-15 19 Dec 13:38:32 13:49:23 76° 129° (SE) 14:00:26 29.354- 29.394
PCSat 19 Dec 13:46:42 13:49:59 17° 106° (ESE) 13:53:17 145.827
Gurwin Techsat 1B 19 Dec 13:46:47 13:52:01 62° 68° (ENE) 13:57:17 435.225
Oscar 19 19 Dec 13:47:03 13:51:58 44° 262° (W) 13:56:57 437.125/150
ITUPSAT 1 19 Dec 13:48:02 13:52:27 35° 96° (E) 13:56:49 437.325
SWISSCUBE 19 Dec 13:48:05 13:52:34 38° 97° (E) 13:57:00 437.505
AISAT 19 Dec 13:51:19 13:52:54 12° 313° (NW) 13:54:28 437.250
BEESAT 3 19 Dec 13:53:04 13:55:56 18° 116° (ESE) 13:58:50 437.485
ITAMSAT 1 19 Dec 13:59:25 14:04:37 75° 255° (WSW) 14:09:49 435.822/435.867
CUBEBUG 1 19 Dec 14:01:11 14:03:58 17° 307° (NW) 14:06:46 437.445
KKS-1 19 Dec 14:02:10 14:04:24 14° 85° (E) 14:06:38 437.445
BEESAT 19 Dec 14:13:17 14:18:01 57° 101° (ESE) 14:22:42 436.000
AUBIESAT-1 19 Dec 14:14:11 14:17:40 22° 95° (E) 14:20:57 437.475
HO-68 19 Dec 14:20:14 14:22:07 11° 344° (NNW) 14:24:00 435.675
BEESAT 2 19 Dec 14:30:40 14:34:23 32° 123° (ESE) 14:38:09 435.950
HORYU 2 19 Dec 14:36:28 14:40:55 69° 70° (ENE) 14:45:26 437.375
M-CUBED/EXP-1 PRIME 19 Dec 14:38:26 14:42:42 37° 102° (ESE) 14:46:38 437.505
JAS-2 19 Dec 14:39:18 14:44:54 25° 49° (NE) 14:50:04 435.910
AO-7 19 Dec 14:55:32 15:03:46 68° 60° (ENE) 15:12:03 29.400- 29.500
Cubesat XI-IV 19 Dec 15:11:11 15:11:53 10° 37° (NE) 15:12:35 437.490
SPROUT 19 Dec 15:14:52 15:16:52 13° 310° (NW) 15:18:52 437.525
TISAT 1 19 Dec 15:15:54 15:17:34 12° 311° (NW) 15:19:14 437.305
ITUPSAT 1 19 Dec 15:25:56 15:30:27 42° 296° (WNW) 15:34:56 437.325
SWISSCUBE 19 Dec 15:26:02 15:30:29 39° 297° (WNW) 15:34:53 437.505
PCSat 19 Dec 15:27:07 15:32:31 71° 127° (SE) 15:37:57 145.827
Gurwin Techsat 1B 19 Dec 15:27:54 15:32:24 28° 268° (W) 15:36:56 435.225
AIST 2 19 Dec 15:29:13 15:33:22 52° 129° (SE) 15:37:35 435.215
BEESAT 3 19 Dec 15:29:27 15:33:36 89° 316° (NW) 15:37:50 437.485
GONETS M04 19 Dec 15:31:47 15:39:36 34° 56° (NE) 15:47:19
STARS 19 Dec 15:36:18 15:40:42 58° 102° (ESE) 15:45:05 437.465
KKS-1 19 Dec 15:37:18 15:41:48 81° 106° (ESE) 15:46:17 437.445
CUTE-I 19 Dec 15:42:01 15:44:59 15° 45° (NE) 15:47:57 437.470
ITAMSAT 1 19 Dec 15:42:10 15:45:02 15° 276° (W) 15:47:54 435.822/435.867
AUBIESAT-1 19 Dec 15:48:32 15:53:07 65° 297° (WNW) 15:57:18 437.475
BEESAT 19 Dec 15:51:33 15:55:37 28° 302° (WNW) 15:59:40 436.000
RS-15 19 Dec 15:51:38 16:02:26 60° 339° (NNW) 16:13:31 29.354- 29.394
ISS 19 Dec 15:53:18 15:56:00 23° 155° (SSE) 15:58:42 145.825
AIST 1 19 Dec 15:57:22 15:59:43 14° 81° (E) 16:02:04
HO-68 19 Dec 16:06:05 16:06:48 10° 11° (N) 16:07:32 435.675
BEESAT 2 19 Dec 16:08:23 16:12:30 56° 324° (NW) 16:16:40 435.950
M-CUBED/EXP-1 PRIME 19 Dec 16:13:25 16:17:47 40° 304° (WNW) 16:21:48 437.505
HORYU 2 19 Dec 16:14:47 16:18:05 20° 270° (W) 16:21:24 437.375
JAS-2 19 Dec 16:21:41 16:29:11 77° 70° (ENE) 16:35:56 435.910
MOZHAYETS 4 19 Dec 16:38:28 16:41:52 20° 88° (E) 16:45:15
Cubesat XI-IV 19 Dec 16:45:48 16:50:36 36° 59° (ENE) 16:55:25 437.490
AO-7 19 Dec 16:49:21 16:57:05 41° 263° (W) 17:04:54 29.400- 29.500
ITUPSAT 1 19 Dec 17:06:12 17:07:13 11° 318° (NW) 17:08:14 437.325
MaSat-1 19 Dec 17:07:04 17:08:44 17° 41° (NE) 17:10:26 437.345
AIST 2 19 Dec 17:08:03 17:12:09 42° 330° (NNW) 17:16:17 435.215
BEESAT 3 19 Dec 17:08:35 17:12:17 30° 339° (NNW) 17:16:01 437.485
PCSat 19 Dec 17:11:16 17:16:21 39° 330° (NNW) 17:21:27 145.827
STARS 19 Dec 17:13:18 17:16:55 25° 302° (WNW) 17:20:32 437.465
KKS-1 19 Dec 17:14:46 17:17:58 20° 306° (NW) 17:21:10 437.445
CUTE-I 19 Dec 17:18:53 17:24:05 57° 66° (ENE) 17:29:18 437.470
AUBIESAT-1 19 Dec 17:24:27 17:27:15 16° 319° (NW) 17:29:57 437.475
GONETS M04 19 Dec 17:28:42 17:37:32 83° 261° (W) 17:46:15
ISS 19 Dec 17:28:59 17:32:08 43° 175° (S) 17:35:17 145.825
AIST 1 19 Dec 17:32:21 17:36:45 88° 281° (WNW) 17:41:08
HO-68 19 Dec 17:47:04 17:51:56 20° 37° (NE) 17:56:49 435.675
BEESAT 2 19 Dec 17:48:02 17:51:32 25° 347° (NNW) 17:55:03 435.950
PRISM 19 Dec 17:48:43 17:51:03 15° 87° (E) 17:53:22 437.425
M-CUBED/EXP-1 PRIME 19 Dec 17:50:03 17:51:39 12° 325° (NW) 17:53:13 437.505
CUBESAT XI-V 19 Dec 17:59:34 18:01:10 12° 82° (E) 18:02:46 437.345
RS-15 19 Dec 18:06:08 18:16:55 55° 12° (NNE) 18:28:05 29.354- 29.394
JAS-2 19 Dec 18:08:18 18:14:46 31° 269° (W) 18:20:46 435.910
MOZHAYETS 4 19 Dec 18:14:58 18:19:38 73° 289° (WNW) 18:24:14
Cubesat XI-IV 19 Dec 18:25:24 18:30:35 51° 260° (W) 18:35:48 437.490
CUSAT 1 19 Dec 18:25:56 18:30:42 19° 47° (NE) 18:36:03 437.405
CUTE 1.7 + AOD 2 19 Dec 18:28:29 18:29:09 10° 47° (NE) 18:29:49 437.475
MaSat-1 19 Dec 18:40:04 18:42:11 32° 240° (WSW) 18:44:24 437.345
AIST 2 19 Dec 18:48:13 18:51:44 24° 354° (N) 18:55:15 435.215
BEESAT 3 19 Dec 18:48:15 18:51:35 22° 3° (N) 18:54:54 437.485
PCSat 19 Dec 18:56:46 19:01:09 24° 355° (N) 19:05:33 145.827
CUTE-I 19 Dec 18:59:50 19:04:29 30° 267° (W) 19:09:10 437.470
ISS 19 Dec 19:05:21 19:08:23 35° 195° (SSW) 19:11:25 145.825
DANDE 19 Dec 19:12:10 19:17:56 28° 56° (NE) 19:24:41 436.750
AIST 1 19 Dec 19:12:27 19:15:07 16° 303° (WNW) 19:17:47
STRAND 1 19 Dec 19:19:35 19:24:27 43° 98° (E) 19:29:18 437.568
AAUSAT CUBESAT 2 19 Dec 19:20:47 19:23:39 18° 55° (NE) 19:26:32 437.432
CINEMA 3 19 Dec 19:22:09 19:23:51 12° 48° (NE) 19:25:36 145.822/145.860
BRITE-PL 19 Dec 19:22:33 19:25:59 25° 60° (ENE) 19:29:26 437.365/2234.400
PRISM 19 Dec 19:23:00 19:27:13 86° 287° (WNW) 19:31:22 437.425
GONETS M04 19 Dec 19:26:29 19:33:07 25° 286° (WNW) 19:39:43
BEESAT 2 19 Dec 19:27:29 19:30:57 24° 11° (N) 19:34:25 435.950
CANX-2 19 Dec 19:29:32 19:33:16 30° 62° (ENE) 19:37:02 2200.000
HO-68 19 Dec 19:31:22 19:38:19 55° 60° (ENE) 19:45:16 435.675
CUBESAT XI-V 19 Dec 19:34:54 19:39:32 68° 103° (ESE) 19:44:07 437.345
UWE-3 19 Dec 19:52:19 19:54:22 13° 50° (NE) 19:56:26 435.000/436.395/437.385
MOZHAYETS 4 19 Dec 19:53:23 19:56:08 16° 309° (NW) 19:58:51
GOMX 1 19 Dec 19:53:56 19:57:42 35° 64° (ENE) 20:01:33 467.674
COMPASS 1 19 Dec 19:54:07 19:57:57 34° 64° (ENE) 20:01:49 437.405
FUNcube-1 19 Dec 19:54:35 19:56:18 12° 49° (NE) 19:58:01 145.935
SEEDS 19 Dec 19:58:03 20:02:04 41° 66° (ENE) 20:06:07 437.485
CUTE 1.7 + AOD 2 19 Dec 20:00:00 20:04:08 48° 68° (ENE) 20:08:18 437.475
CUSAT 1 19 Dec 20:08:18 20:15:13 56° 68° (ENE) 20:23:23 437.405
AISAT 19 Dec 20:08:31 20:10:11 12° 47° (NE) 20:11:51 437.250
DX 1 19 Dec 20:09:28 20:12:56 24° 57° (ENE) 20:16:25 434.975-435.025
DELFI C3 19 Dec 20:17:13 20:20:37 25° 60° (ENE) 20:24:03 145.870
RS-15 19 Dec 20:19:25 20:30:36 87° 42° (NE) 20:42:16 29.354- 29.394
50 SAT 19 Dec 20:22:06 20:23:08 11° 49° (NE) 20:24:10 437.505
DOVE 4 19 Dec 20:23:40 20:27:40 48° 67° (ENE) 20:31:47 437.250
BEESAT 3 19 Dec 20:26:54 20:30:48 35° 26° (NNE) 20:34:39 437.485
AIST 2 19 Dec 20:27:44 20:31:31 28° 17° (NNE) 20:35:16 435.215
Oscar 11 19 Dec 20:32:58 20:37:02 40° 65° (ENE) 20:41:07 145.826/435.025
HUMSAT D 19 Dec 20:34:43 20:37:19 16° 54° (NE) 20:39:57 437.325/437.525
UKube-1 19 Dec 20:40:53 20:44:56 39° 64° (ENE) 20:48:59 .
PCSat 19 Dec 20:41:22 20:46:09 30° 21° (NNE) 20:50:55 145.827
ISS 19 Dec 20:42:33 20:44:19 14° 214° (SW) 20:46:05 145.825
CUBEBUG 2 19 Dec 20:46:10 20:50:01 35° 63° (ENE) 20:53:58 437.445
AAUSAT CUBESAT 2 19 Dec 20:54:36 20:58:50 82° 255° (WSW) 21:03:07 437.432
DANDE 19 Dec 20:55:14 21:02:14 84° 75° (ENE) 21:10:44 436.750
CINEMA 3 19 Dec 20:56:06 21:00:13 61° 70° (ENE) 21:04:31 145.822/145.860
STRAND 1 19 Dec 20:58:56 21:03:39 39° 299° (WNW) 21:08:20 437.568
PRISM 19 Dec 20:59:37 21:02:10 16° 307° (NW) 21:04:42 437.425
VELOX 1 19 Dec 20:59:49 21:03:29 26° 59° (ENE) 21:07:09 145.980
ESTCUBE 1 19 Dec 21:00:11 21:02:47 15° 51° (NE) 21:05:22 437.505/2401.250
BRITE-PL 19 Dec 21:00:20 21:04:21 48° 261° (W) 21:08:25 437.365/2234.400
ZACube-1 19 Dec 21:00:58 21:04:50 36° 64° (ENE) 21:08:48 437.345
CANX-2 19 Dec 21:05:00 21:09:06 44° 262° (W) 21:13:15 2200.000
BEESAT 2 19 Dec 21:05:55 21:10:03 50° 34° (NE) 21:14:09 435.950
CUBESAT XI-V 19 Dec 21:12:59 21:16:36 23° 303° (WNW) 21:20:12 437.345
HO-68 19 Dec 21:19:25 21:26:14 45° 262° (W) 21:33:06 435.675
UWE-3 19 Dec 21:25:57 21:30:08 67° 71° (ENE) 21:34:27 435.000/436.395/437.385
FUNcube-1 19 Dec 21:27:40 21:31:48 60° 70° (ENE) 21:36:04 145.935
COMPASS 1 19 Dec 21:29:44 21:33:40 37° 264° (W) 21:37:39 437.405
GOMX 1 19 Dec 21:32:08 21:35:55 34° 265° (W) 21:39:47 467.674
SEEDS 19 Dec 21:34:16 21:38:02 30° 266° (W) 21:41:50 437.485
CUTE 1.7 + AOD 2 19 Dec 21:36:41 21:40:18 26° 268° (W) 21:43:57 437.475
AISAT 19 Dec 21:41:37 21:45:56 55° 68° (ENE) 21:50:16 437.250
DX 1 19 Dec 21:44:35 21:48:53 60° 257° (WSW) 21:53:13 434.975-435.025
SO-50 19 Dec 21:48:00 21:51:50 27° 119° (ESE) 21:55:46 436.795
CUSAT 1 19 Dec 21:51:33 21:58:21 48° 267° (W) 22:06:15 437.405
CUBEBUG 1 19 Dec 21:51:35 21:55:25 31° 62° (ENE) 21:59:15 437.445
DELFI C3 19 Dec 21:51:40 21:55:41 50° 260° (W) 21:59:45 145.870
50 SAT 19 Dec 21:53:34 21:57:31 55° 69° (ENE) 22:01:32 437.505
DOVE 4 19 Dec 22:02:20 22:05:45 24° 268° (W) 22:09:15 437.250
BEESAT 3 19 Dec 22:05:06 22:09:17 67° 228° (SW) 22:13:25 437.485
AIST 2 19 Dec 22:06:26 22:10:47 73° 40° (NE) 22:15:04 435.215
HUMSAT D 19 Dec 22:08:23 22:12:33 89° 69° (ENE) 22:16:48 437.325/437.525
Oscar 11 19 Dec 22:09:22 22:13:18 32° 265° (W) 22:17:15 145.826/435.025
UKube-1 19 Dec 22:17:15 22:21:11 33° 264° (W) 22:25:08 .
TIGRISAT 19 Dec 22:20:23 22:23:44 19° 88° (E) 22:27:06 435.000
CUBEBUG 2 19 Dec 22:22:52 22:26:45 35° 264° (W) 22:30:46 437.445
PCSat 19 Dec 22:24:57 22:30:25 73° 45° (NE) 22:35:50 145.827
M-CUBED/EXP-1 PRIME 19 Dec 22:29:57 22:30:24 10° 32° (NNE) 22:30:52 437.505
RS-15 19 Dec 22:32:05 22:42:04 40° 249° (WSW) 22:52:27 29.354- 29.394
POPSAT HIP 1 19 Dec 22:32:07 22:34:39 15° 87° (E) 22:37:10 437.405
AAUSAT CUBESAT 2 19 Dec 22:33:20 22:35:14 13° 275° (W) 22:37:09 437.432
ESTCUBE 1 19 Dec 22:34:25 22:38:56 72° 71° (ENE) 22:43:29 437.505/2401.250
CINEMA 3 19 Dec 22:34:46 22:37:54 20° 271° (W) 22:41:07 145.822/145.860
VELOX 1 19 Dec 22:35:29 22:39:50 55° 259° (WSW) 22:44:12 145.980
ZACube-1 19 Dec 22:37:25 22:41:16 34° 265° (W) 22:45:13 437.345
DANDE 19 Dec 22:39:18 22:45:19 30° 273° (W) 22:52:15 436.750
STRAND 1 19 Dec 22:40:37 22:41:35 11° 320° (NW) 22:42:33 437.568
BEESAT 2 19 Dec 22:44:21 22:48:16 38° 235° (SW) 22:52:08 435.950
UNISAT 6 19 Dec 22:48:33 22:52:46 32° 94° (E) 22:57:00 437.425
YUBILEINY 19 Dec 22:50:18 22:56:34 23° 73° (ENE) 23:02:50 435.215
DUCHIFAT 1 19 Dec 22:59:55 23:03:29 26° 93° (E) 23:07:03 145.980
TISAT 1 19 Dec 23:02:31 23:06:27 40° 65° (ENE) 23:10:24 437.305
SPROUT 19 Dec 23:02:57 23:06:54 38° 64° (ENE) 23:10:53 437.525
BUGSAT 1 19 Dec 23:03:26 23:06:38 22° 92° (E) 23:09:50 437.445
UWE-3 19 Dec 23:04:10 23:07:11 19° 272° (W) 23:10:16 435.000/436.395/437.385
FUNcube-1 19 Dec 23:05:22 23:08:35 21° 270° (W) 23:11:51 145.935
QB50P2 19 Dec 23:12:38 23:16:32 33° 96° (E) 23:20:25 145.880/145.840
HO-68 19 Dec 23:15:21 23:16:00 10° 285° (WNW) 23:16:38 435.675
AISAT 19 Dec 23:19:17 23:22:53 24° 268° (W) 23:26:31 437.250
ANTELSAT 19 Dec 23:20:13 23:24:51 57° 101° (E) 23:29:31 437.575/2403.000
POLYITAN 1 19 Dec 23:21:04 23:25:07 39° 98° (E) 23:29:09 437.675
NANOSAT C BR1 19 Dec 23:24:05 23:28:08 41° 98° (E) 23:32:10 145.865
SWISSCUBE 19 Dec 23:25:52 23:29:22 21° 53° (NE) 23:32:53 437.505
ITUPSAT 1 19 Dec 23:26:07 23:29:31 20° 52° (NE) 23:32:55 437.325
SO-50 19 Dec 23:27:22 23:32:00 75° 321° (NW) 23:36:49 436.795
CUBEBUG 1 19 Dec 23:27:32 23:31:42 43° 261° (W) 23:35:53 437.445
50 SAT 19 Dec 23:30:01 23:33:06 21° 269° (W) 23:36:13 437.505
AUBIESAT-1 19 Dec 23:35:43 23:39:24 22° 47° (NE) 23:43:02 437.475
CUSAT 1 19 Dec 23:36:58 23:40:07 13° 286° (WNW) 23:43:26 437.405
QB50P1 19 Dec 23:38:16 23:42:28 55° 101° (E) 23:46:40 145.935-145.965
BEESAT 3 19 Dec 23:44:48 23:46:44 13° 248° (WSW) 23:48:39 437.485
AIST 2 19 Dec 23:45:33 23:49:03 24° 241° (WSW) 23:52:31 435.215
HUMSAT D 19 Dec 23:46:51 23:49:02 14° 274° (W) 23:51:14 437.325/437.525
BEESAT 19 Dec 23:50:19 23:54:22 28° 58° (ENE) 23:58:25 436.000
TIGRISAT 19 Dec 23:56:20 00:01:01 77° 288° (WNW) 00:05:44 435.000
M-CUBED/EXP-1 PRIME 19 Dec 23:59:51 00:04:09 31° 53° (NE) 00:08:27 437.505
POPSAT HIP 1 20 Dec 00:06:52 00:11:09 84° 287° (WNW) 00:15:26 437.405
PCSat 20 Dec 00:08:49 00:13:27 29° 246° (WSW) 00:18:03 145.827
ESTCUBE 1 20 Dec 00:13:02 00:16:19 20° 271° (W) 00:19:38 437.505/2401.250
UNISAT 6 20 Dec 00:25:15 00:29:43 46° 294° (WNW) 00:34:13 437.425
DUCHIFAT 1 20 Dec 00:35:29 00:39:35 48° 293° (WNW) 00:43:41 145.980
BUGSAT 1 20 Dec 00:38:29 00:42:26 52° 292° (WNW) 00:46:23 437.445
TISAT 1 20 Dec 00:38:39 00:42:23 31° 265° (W) 00:46:09 437.305
SPROUT 20 Dec 00:39:10 00:43:04 33° 264° (W) 00:46:59 437.525
YUBILEINY 20 Dec 00:43:18 00:52:01 77° 97° (E) 01:00:43 435.215
O/OREOS (USA 219) 20 Dec 00:46:15 00:49:23 19° 103° (ESE) 00:52:32 437.305
QB50P2 20 Dec 00:48:34 00:52:31 38° 296° (WNW) 00:56:28 145.880/145.840
POLYITAN 1 20 Dec 00:57:11 01:01:01 33° 297° (WNW) 01:04:51 437.675
ANTELSAT 20 Dec 00:57:27 01:01:24 28° 301° (WNW) 01:05:24 437.575/2403.000
NANOSAT C BR1 20 Dec 01:00:11 01:03:56 31° 298° (WNW) 01:07:42 145.865
SWISSCUBE 20 Dec 01:01:53 01:06:42 86° 254° (WSW) 01:11:33 437.505
ITUPSAT 1 20 Dec 01:02:00 01:06:50 89° 74° (ENE) 01:11:41 437.325
STARS 20 Dec 01:05:29 01:08:54 23° 57° (ENE) 01:12:20 437.465
KKS-1 20 Dec 01:06:55 01:10:47 30° 61° (ENE) 01:14:40 437.445
AUBIESAT-1 20 Dec 01:08:53 01:13:47 86° 66° (ENE) 01:18:41 437.475
SO-50 20 Dec 01:09:00 01:13:14 32° 344° (NNW) 01:17:34 436.795
QB50P1 20 Dec 01:14:40 01:18:07 25° 301° (WNW) 01:21:35 145.935-145.965
BEESAT 20 Dec 01:27:13 01:31:58 58° 258° (WSW) 01:36:43 436.000
M-CUBED/EXP-1 PRIME 20 Dec 01:34:05 01:38:55 59° 252° (WSW) 01:43:47 437.505
TIGRISAT 20 Dec 01:34:11 01:37:06 17° 308° (NW) 01:40:03 435.000
POPSAT HIP 1 20 Dec 01:43:53 01:46:28 16° 307° (NW) 01:49:03 437.405
Oscar 19 20 Dec 01:50:50 01:55:44 40° 97° (E) 02:00:36 437.125/150
Gurwin Techsat 1B 20 Dec 01:56:49 01:59:40 15° 83° (E) 02:02:31 435.225
UNISAT 6 20 Dec 02:04:12 02:05:29 11° 315° (NW) 02:06:47 437.425
ITAMSAT 1 20 Dec 02:05:18 02:09:25 23° 90° (E) 02:13:31 435.822/435.867
DUCHIFAT 1 20 Dec 02:13:59 02:14:32 10° 313° (NW) 02:15:05 145.980
BUGSAT 1 20 Dec 02:16:38 02:17:05 10° 312° (NW) 02:17:32 437.445
O/OREOS (USA 219) 20 Dec 02:23:49 02:28:17 76° 303° (WNW) 02:32:47 437.305
STARS 20 Dec 02:40:40 02:45:02 66° 257° (WSW) 02:49:26 437.465
YUBILEINY 20 Dec 02:41:53 02:49:44 36° 302° (WNW) 02:57:38 435.215
ITUPSAT 1 20 Dec 02:42:19 02:45:25 17° 273° (W) 02:48:32 437.325
SWISSCUBE 20 Dec 02:42:26 02:45:19 16° 274° (W) 02:48:12 437.505
KKS-1 20 Dec 02:43:02 02:47:18 46° 261° (W) 02:51:36 437.445
AUBIESAT-1 20 Dec 02:45:47 02:49:17 20° 266° (W) 02:52:48 437.475
SO-50 20 Dec 02:50:49 02:54:58 28° 8° (N) 02:59:12 436.795
AO-7 20 Dec 02:51:09 02:54:24 12° 76° (ENE) 02:57:38 29.400- 29.500
BEESAT 20 Dec 03:10:10 03:10:52 10° 279° (W) 03:11:34 436.000
M-CUBED/EXP-1 PRIME 20 Dec 03:13:10 03:14:52 12° 272° (W) 03:16:34 437.505
Oscar 19 20 Dec 03:30:15 03:35:09 43° 297° (WNW) 03:40:03 437.125/150
AIST 1 20 Dec 03:32:11 03:36:25 52° 73° (ENE) 03:40:36
Gurwin Techsat 1B 20 Dec 03:35:17 03:40:38 72° 104° (ESE) 03:45:56 435.225
ITAMSAT 1 20 Dec 03:44:16 03:49:26 71° 291° (WNW) 03:54:35 435.822/435.867
MOZHAYETS 4 20 Dec 03:47:15 03:51:37 41° 65° (ENE) 03:56:01
HORYU 2 20 Dec 03:57:22 04:01:49 51° 100° (E) 04:06:14 437.375
O/OREOS (USA 219) 20 Dec 04:05:08 04:08:27 20° 326° (NW) 04:11:48 437.305
STARS 20 Dec 04:21:31 04:22:25 11° 277° (W) 04:23:19 437.465
SO-50 20 Dec 04:31:43 04:36:27 52° 32° (NNE) 04:41:15 436.795
AO-7 20 Dec 04:41:24 04:49:30 49° 100° (E) 04:57:33 29.400- 29.500
GONETS M04 20 Dec 04:44:17 04:51:10 27° 75° (ENE) 04:58:01
PRISM 20 Dec 04:45:54 04:49:35 30° 61° (ENE) 04:53:17 437.425
YUBILEINY 20 Dec 04:45:54 04:50:02 14° 333° (NNW) 04:54:10 435.215
STRAND 1 20 Dec 05:04:53 05:09:08 27° 56° (NE) 05:13:23 437.568
CUBESAT XI-V 20 Dec 05:09:09 05:13:04 27° 59° (ENE) 05:16:59 437.345
JAS-2 20 Dec 05:09:22 05:14:40 33° 92° (E) 05:19:30 435.910
AIST 1 20 Dec 05:10:26 05:13:47 23° 274° (W) 05:17:07
Oscar 19 20 Dec 05:11:29 05:13:18 12° 319° (NW) 05:15:08 437.125/150
Gurwin Techsat 1B 20 Dec 05:15:50 05:20:12 27° 305° (NW) 05:24:34 435.225
MOZHAYETS 4 20 Dec 05:24:41 05:28:57 35° 265° (W) 05:33:14
ITAMSAT 1 20 Dec 05:24:48 05:28:09 18° 312° (NW) 05:31:30 435.822/435.867
CUTE-I 20 Dec 05:30:13 05:32:31 13° 82° (E) 05:34:48 437.470
HORYU 2 20 Dec 05:34:25 05:38:18 29° 301° (WNW) 05:42:10 437.375
SO-50 20 Dec 06:12:24 06:17:03 46° 233° (SW) 06:21:45 436.795
PRISM 20 Dec 06:20:58 06:25:01 43° 261° (W) 06:29:05 437.425
AO-7 20 Dec 06:34:23 06:42:32 58° 303° (WNW) 06:50:39 29.400- 29.500
Cubesat XI-IV 20 Dec 06:35:04 06:40:01 38° 96° (E) 06:44:57 437.490
GONETS M04 20 Dec 06:37:59 06:46:51 86° 100° (E) 06:55:44
STRAND 1 20 Dec 06:42:54 06:48:00 66° 257° (WSW) 06:53:06 437.568
CUBESAT XI-V 20 Dec 06:45:41 06:50:17 56° 259° (W) 06:54:53 437.345
JAS-2 20 Dec 06:54:20 07:00:11 54° 296° (WNW) 07:05:26 435.910
CUTE-I 20 Dec 07:08:23 07:13:41 64° 103° (ESE) 07:18:58 437.470
O/OREOS (USA 219) 20 Dec 07:29:38 07:31:16 12° 18° (NNE) 07:32:53 437.305
Cubesat XI-IV 20 Dec 08:15:11 08:20:15 46° 297° (WNW) 08:25:18 437.490
UNISAT 6 20 Dec 08:20:58 08:23:13 14° 49° (NE) 08:25:29 437.425
STRAND 1 20 Dec 08:25:59 08:28:12 13° 277° (W) 08:30:26 437.568
AO-7 20 Dec 08:27:35 08:33:50 24° 328° (NNW) 08:40:05 29.400- 29.500
DUCHIFAT 1 20 Dec 08:28:14 08:28:44 10° 47° (NE) 08:29:13 145.980
AAUSAT CUBESAT 2 20 Dec 08:33:09 08:34:23 11° 83° (E) 08:35:36 437.432
GONETS M04 20 Dec 08:37:08 08:44:52 33° 305° (NW) 08:52:38
HO-68 20 Dec 08:38:42 08:44:42 28° 90° (E) 08:50:39 435.675
QB50P2 20 Dec 08:39:52 08:41:46 13° 50° (NE) 08:43:40 145.880/145.840
JAS-2 20 Dec 08:40:33 08:43:58 16° 320° (NW) 08:47:13 435.910
CANX-2 20 Dec 08:43:36 08:46:57 21° 90° (E) 08:50:17 2200.000
CINEMA 3 20 Dec 08:46:37 08:46:47 10° 81° (E) 08:46:56 145.822/145.860
YUBILEINY 20 Dec 08:47:38 08:53:50 21° 42° (NE) 09:00:00 435.215
POLYITAN 1 20 Dec 08:48:01 08:50:21 15° 52° (NE) 08:52:42 437.675
CUTE-I 20 Dec 08:48:55 08:53:28 29° 304° (WNW) 08:57:59 437.470
NANOSAT C BR1 20 Dec 08:50:31 08:52:56 15° 52° (NE) 08:55:20 145.865
ANTELSAT 20 Dec 08:51:21 08:54:45 22° 56° (NE) 08:58:13 437.575/2403.000
BRITE-PL 20 Dec 08:56:41 09:00:43 30° 94° (E) 09:05:00 437.365/2234.400
QB50P1 20 Dec 09:04:10 09:07:07 19° 55° (NE) 09:10:05 145.935-145.965
COMPASS 1 20 Dec 09:06:29 09:09:59 24° 92° (E) 09:13:27 437.405
O/OREOS (USA 219) 20 Dec 09:08:15 09:12:11 29° 42° (NE) 09:16:08 437.305
SEEDS 20 Dec 09:11:18 09:15:07 30° 94° (E) 09:18:54 437.485
CUTE 1.7 + AOD 2 20 Dec 09:14:06 09:18:07 35° 96° (E) 09:22:06 437.475
GOMX 1 20 Dec 09:25:13 09:29:33 39° 97° (E) 09:34:10 467.674
DELFI C3 20 Dec 09:26:00 09:28:33 16° 87° (E) 09:31:05 145.870
TIGRISAT 20 Dec 09:26:14 09:30:17 37° 63° (ENE) 09:34:28 435.000
DX 1 20 Dec 09:26:55 09:29:23 15° 87° (E) 09:31:51 434.975-435.025
CUSAT 1 20 Dec 09:29:19 09:32:49 26° 84° (E) 09:37:14 437.405
POPSAT HIP 1 20 Dec 09:31:54 09:35:33 29° 61° (ENE) 09:39:14 437.405
MaSat-1 20 Dec 09:37:51 09:39:43 22° 118° (ESE) 09:41:33 437.345
HUMSAT D 20 Dec 09:48:35 09:49:04 10° 82° (E) 09:49:34 437.325/437.525
Oscar 11 20 Dec 09:49:11 09:53:02 29° 94° (E) 09:56:51 145.826/435.025
DOVE 4 20 Dec 09:52:18 09:56:50 51° 100° (E) 10:01:38 437.250
UNISAT 6 20 Dec 09:54:48 09:59:10 64° 70° (ENE) 10:03:41 437.425
Cubesat XI-IV 20 Dec 09:56:54 09:59:12 13° 318° (NW) 10:01:29 437.490
UKube-1 20 Dec 09:57:37 10:01:16 26° 93° (E) 10:04:54 .
DUCHIFAT 1 20 Dec 09:59:37 10:03:40 49° 67° (ENE) 10:07:45 145.980
BUGSAT 1 20 Dec 10:00:35 10:04:26 41° 66° (ENE) 10:08:16 437.445
CUBEBUG 2 20 Dec 10:06:14 10:10:19 31° 94° (E) 10:14:28 437.445
AAUSAT CUBESAT 2 20 Dec 10:06:36 10:10:53 71° 103° (ESE) 10:15:07 437.432
QB50P2 20 Dec 10:12:45 10:16:56 65° 70° (ENE) 10:21:09 145.880/145.840
ZACube-1 20 Dec 10:18:28 10:22:26 30° 94° (E) 10:26:26 437.345
DANDE 20 Dec 10:18:38 10:22:26 53° 95° (E) 10:27:38 436.750
CANX-2 20 Dec 10:18:59 10:23:16 60° 290° (WNW) 10:27:32 2200.000
AO-7 20 Dec 10:19:37 10:23:51 15° 355° (N) 10:28:06 29.400- 29.500
VELOX 1 20 Dec 10:19:44 10:22:47 18° 89° (E) 10:25:49 145.980
CINEMA 3 20 Dec 10:20:21 10:24:57 57° 101° (E) 10:29:43 145.822/145.860
POLYITAN 1 20 Dec 10:21:26 10:25:38 77° 72° (ENE) 10:29:54 437.675
NANOSAT C BR1 20 Dec 10:23:58 10:28:11 80° 73° (ENE) 10:32:25 145.865
HO-68 20 Dec 10:26:02 10:33:15 83° 292° (WNW) 10:40:24 435.675
ANTELSAT 20 Dec 10:26:42 10:31:07 71° 257° (WSW) 10:35:41 437.575/2403.000
BRITE-PL 20 Dec 10:35:06 10:39:26 48° 292° (WNW) 10:44:05 437.365/2234.400
QB50P1 20 Dec 10:38:20 10:42:33 77° 256° (WSW) 10:46:49 145.935-145.965
